{"data":{"norad_id":53075,"intl_designator":"2022-077AJ","name":"STARLINK-4348","alt_names":[],"object_type":"PAYLOAD","status":"ACTIVE","operator":null,"country":"US","launch_date":"2022-07-11","launch_site_code":"AFWTR","launch_vehicle":null,"mission":null,"orbit_class":"UNKNOWN","rcs_meters":null,"size_class":null,"mass_kg":null,"dimensions":null,"purposes":["comms"],"wikipedia_slug":null,"has_3d_model":false,"image_url":null,"decayed_at":null,"tle_current":{"epoch":"2026-05-24T23:15:40.023936Z","epoch_age_seconds":71699,"freshness":"FRESH","line1":"1 53075U 22077AJ  26144.96921324  .00000872  00000+0  64500-4 0  9996","line2":"2 53075  97.4491 324.9882 0001148 123.5634 236.5703 15.05647203212396","mean_motion":15.05647203,"eccentricity":0.0001148,"inclination_deg":97.4491,"raan_deg":324.9882,"arg_perigee_deg":123.5634,"mean_anomaly_deg":236.5703,"bstar":6.45e-5,"rev_number":21239,"period_min":95.639934583002,"perigee_km":548.72443857958,"apogee_km":550.31502856561,"semimajor_km":6927.6567335726,"source":"CELESTRAK","updated_at":"2026-05-25T13:38:17.312625Z"}}}